Location: Newark
(36.1358°N, 115.1208°W)
Time: 19:06:42
(UTC+00:00)

Tiros 1 - Visible Passes

Search period start: 16 February 2020 00:00
Search period end: 26 February 2020 00:00
Orbit: 630 x 664 km, 48.4° (Epoch: 16 February)

Date Brightness Start Highest point End Pass type
(mag) Time Alt. Az. Time Alt. Az. Time Alt. Az.
16 Feb 9.3 11:44:06 22° NE 11:44:06 22° NE 11:45:48 10° NE visible
16 Feb 8.5 13:21:46 18° NW 13:23:52 24° NNW 13:27:39 10° NE visible
17 Feb 8.6 12:09:07 28° NNE 12:09:07 28° NNE 12:11:44 10° NE visible
17 Feb 8.9 13:47:14 10° NW 13:50:30 19° N 13:53:45 10° NE visible
18 Feb 8.5 12:34:04 25° NNW 12:34:04 25° NNW 12:37:37 10° NE visible
19 Feb 10.0 11:21:19 12° NE 11:21:19 12° NE 11:21:42 10° NE visible
19 Feb 8.9 12:58:58 17° NNW 13:00:22 19° N 13:03:40 10° NE visible
20 Feb 9.5 11:46:11 17° NNE 11:46:11 17° NNE 11:47:35 10° NE visible
20 Feb 9.1 13:23:57 10° NW 13:27:04 17° N 13:30:11 10° NE visible
21 Feb 9.1 12:11:02 19° N 12:11:02 19° N 12:13:37 10° NE visible
21 Feb 9.0 13:50:19 10° NW 13:53:45 20° NNE 13:57:10 10° ENE visible
22 Feb 9.1 12:35:52 16° NNW 12:36:56 17° N 12:40:04 10° NE visible
23 Feb 10.0 11:23:02 12° NNE 11:23:02 12° NNE 11:23:33 10° NE visible
23 Feb 9.1 13:00:42 12° NNW 13:03:38 19° N 13:07:00 10° ENE visible
24 Feb 9.4 11:47:53 16° NNE 11:47:53 16° NNE 11:49:57 10° NE visible
24 Feb 8.8 13:26:17 10° NW 13:30:12 27° NNE 13:34:08 10° ENE visible
25 Feb 9.1 12:12:45 18° N 12:13:31 19° N 12:16:50 10° NE visible
25 Feb 8.0 13:52:09 10° NW 13:56:35 44° NNE 14:01:01 10° ESE visible
